Location: Newark
(63.1158°N, 8.1461°E)
Time: 23:47:52
(UTC+00:00)

N. Korean satellite - Visible Passes

Search period start: 12 December 2019 00:00
Search period end: 22 December 2019 00:00
Orbit: 455 x 506 km, 97.2° (Epoch: 12 December)

Date Brightness Start Highest point End Pass type
(mag) Time Alt. Az. Time Alt. Az. Time Alt. Az.
12 Dec 9.9 04:07:56 10° NE 04:09:41 13° E 04:11:25 10° ESE visible
12 Dec 6.8 05:40:12 10° NNE 05:43:48 70° ESE 05:47:19 10° S visible
12 Dec 7.7 07:14:01 10° N 07:16:55 23° NW 07:19:46 10° WSW visible
12 Dec 7.5 14:53:20 10° ESE 14:56:34 29° ENE 14:59:47 10° N visible
12 Dec 7.4 16:26:11 10° S 16:29:49 54° WSW 16:33:26 10° NNW visible
12 Dec 10.1 18:03:02 10° W 18:04:03 11° W 18:05:04 10° WNW visible
13 Dec 7.8 05:14:50 10° NNE 05:18:16 42° E 05:21:37 10° S visible
13 Dec 7.2 06:48:22 10° N 06:51:38 34° WNW 06:54:50 10° SW visible
13 Dec 6.6 16:00:38 10° SSE 16:04:20 87° WSW 16:08:00 10° NNW visible
13 Dec 9.7 17:35:50 10° SW 17:38:17 17° W 17:40:42 10° NW visible
14 Dec 8.7 04:49:34 10° NNE 04:52:39 26° E 04:55:40 10° SSE visible
14 Dec 6.6 06:22:47 10° N 06:26:18 52° WNW 06:29:43 10° SW visible
14 Dec 6.6 15:35:17 10° SSE 15:38:55 59° ENE 15:42:30 10° NNW visible
14 Dec 9.0 17:09:29 10° SSW 17:12:36 25° W 17:15:40 10° NW visible
15 Dec 9.5 04:24:31 10° NE 04:26:57 17° E 04:29:21 10° SE visible
15 Dec 6.4 05:57:18 10° NNE 06:00:52 84° WNW 06:04:22 10° SSW visible
15 Dec 7.9 07:31:17 10° N 07:33:49 18° NW 07:36:19 10° W visible
15 Dec 7.1 15:10:07 10° SE 15:13:33 38° ENE 15:16:56 10° N visible
15 Dec 8.1 16:43:30 10° SSW 16:46:58 39° W 16:50:25 10° NNW visible
16 Dec 10.0 04:00:05 10° ENE 04:01:11 11° E 04:02:16 10° E visible
16 Dec 7.1 05:31:52 10° NNE 05:35:23 59° ESE 05:38:50 10° S visible
16 Dec 7.5 07:05:34 10° N 07:08:35 26° NW 07:11:32 10° WSW visible
16 Dec 7.1 16:17:46 10° S 16:21:26 63° WSW 16:25:02 10° NNW visible
16 Dec 10.0 17:53:58 10° WSW 17:55:33 12° W 17:57:08 10° WNW visible
17 Dec 8.1 05:06:31 10° NNE 05:09:49 36° E 05:13:03 10° SSE visible
17 Dec 7.0 06:39:57 10° N 06:43:16 38° WNW 06:46:32 10° SW visible
17 Dec 6.5 15:52:17 10° SSE 15:55:57 81° ENE 15:59:35 10° NNW visible
17 Dec 9.5 17:27:09 10° SW 17:29:48 19° W 17:32:27 10° NW visible
18 Dec 9.0 04:41:18 10° NE 04:44:10 23° E 04:47:00 10° SE visible
18 Dec 6.4 06:14:24 10° NNE 06:17:54 60° WNW 06:21:20 10° SSW visible
18 Dec 8.2 07:48:39 10° N 07:50:41 15° NW 07:52:42 10° W visible
18 Dec 6.7 15:27:00 10° SE 15:30:32 50° ENE 15:34:03 10° N visible
18 Dec 8.8 17:00:56 10° SSW 17:04:08 28° W 17:07:19 10° NNW visible
19 Dec 9.7 04:16:22 10° NE 04:18:27 15° E 04:20:31 10° ESE visible
19 Dec 6.5 05:48:54 10° NNE 05:52:27 83° ESE 05:55:56 10° SSW visible
19 Dec 7.8 07:22:49 10° N 07:25:28 20° NW 07:28:06 10° W visible
19 Dec 7.3 15:01:54 10° SE 15:05:11 33° ENE 15:08:27 10° N visible
19 Dec 7.8 16:35:02 10° S 16:38:32 45° W 16:42:01 10° NNW visible
20 Dec 7.4 05:23:29 10° NNE 05:26:56 49° E 05:30:19 10° S visible
20 Dec 7.3 06:57:08 10° N 07:00:13 29° WNW 07:03:15 10° WSW visible
20 Dec 6.8 16:09:22 10° S 16:13:01 73° WSW 16:16:37 10° NNW visible
20 Dec 9.9 17:45:04 10° WSW 17:47:03 14° W 17:49:01 10° NW visible
21 Dec 8.4 04:58:10 10° NNE 05:01:20 30° E 05:04:27 10° SSE visible
21 Dec 6.8 06:31:31 10° N 06:34:53 43° WNW 06:38:11 10° SW visible
21 Dec 6.5 15:43:56 10° SSE 15:47:33 69° ENE 15:51:07 10° NNW visible
21 Dec 9.3 17:18:29 10° SW 17:21:19 21° W 17:24:08 10° NW visible
